Starlink 36188

operational
NORAD ID: 67122 Int'l Des: 2025-299 Owner: SPXS Country: US Constellation: starlink
LEOCIRCULAR

Über Starlink 36188

Beschreibung wird geladen...

Live-Position

3D-Globus wird geladen...

Nächste Überflüge

Höhenverlauf

Altitude vs Time

uPlot chart will show altitude changes over time

Zweizeiliger Elementsatz

1 67122C 25299W 25349.43451389 .00349660 00000+0 54869-3 0 3496
2 67122 43.0018 301.4679 0007389 264.7636 337.7387 16.02550754 11
Epoch: 15. Dez. 2025 • Age: 66 hours

Aktueller Status

Höhe 263.7 km
Geschwindigkeit 7.75 km/s
Subsatellitenpunkt -5.40°S, 123.39°E
Startdatum 15. Dez. 2025
Alter 2 days
Typ internet

Technische Details

Klassifizierung Payload
Masse 575.00 kg
Trockenmasse 530.00 kg
Gesamtmasse 575.00 kg
Länge 0.30 m
Durchmesser 4.10 m
Spannweite 29.00 m
Form Box + pan
Hersteller SPXS
Bus-Typ Starlink V2MO
Phasenstatus In Orbit
Besitzer/Staat SPXS/US

Große Konstellationen

Loading constellations...